{"data":{"norad_id":63275,"epoch":"2026-05-25T00:03:57.154176Z","epoch_age_seconds":85392,"freshness":"FRESH","line1":"1 63275U 25053L   26145.00274484  .00198833  00000+0  15139-2 0  9997","line2":"2 63275  43.0016  12.0541 0001510 268.9103  91.1591 15.70877204 69662","mean_motion":15.70877204,"eccentricity":0.000151,"inclination_deg":43.0016,"raan_deg":12.0541,"arg_perigee_deg":268.9103,"mean_anomaly_deg":91.1591,"bstar":0.0015139,"rev_number":6966,"period_min":91.668527389236,"perigee_km":355.37181428753,"apogee_km":357.40564105728,"semimajor_km":6734.5257276724,"source":"CELESTRAK","updated_at":"2026-05-25T13:38:19.926236Z"}}